Wind_Speed
16 16 16 16 16 17 17 17 17 17 17 16 16 16 16 16 16 16 15 15 15 16 15 14 13 12 11 10 9 8 8 8 8 7 7 7 7 7 7 7 7 6 6 6 7 7 6 7 7 8 7 7 8 8 10 11 12 12 13 14 15 14 11 9 7 6 5 3 2 3 4 6 6 6 6 7 8 8 8 8 6 6 5 4 4 4 5 5
16 16 16 16 16 16 16 16 17 17 17 17 17 17 16 16 16 16 15 16 16 16 15 14 13 12 11 10 9 8 9 8 8 8 7 7 7 7 7 7 6 6 7 7 6 6 6 6 7 7 6 6 7 8 9 10 11 12 13 14 14 14 11 8 6 6 5 3 2 3 4 5 5 6 6 7 8 9 8 7 6 5 5 5 5 5 5 5
16 16 16 16 15 16 16 16 16 16 16 17 17 17 17 17 16 16 16 16 16 16 15 14 12 11 10 9 9 9 9 8 8 7 7 7 7 7 7 7 6 7 7 7 6 6 5 5 5 4 4 5 6 8 9 10 11 12 12 13 13 13 11 9 7 6 5 4 3 4 5 6 5 5 6 6 8 8 6 5 5 6 6 7 6 6 6 6
18 17 17 17 16 16 16 16 16 16 17 17 17 17 17 17 17 17 17 16 16 15 14 13 12 11 10 9 9 9 8 8 7 8 8 7 7 7 7 7 7 7 7 7 7 6 5 5 3 2 3 5 7 8 9 10 10 11 11 11 12 11 10 10 8 6 6 6 6 6 7 7 6 6 5 6 7 6 5 6 7 8 9 9 8 8 8 7
18 18 18 18 18 17 17 17 17 17 17 17 17 17 17 17 17 17 17 17 16 15 14 12 11 11 10 10 9 9 8 8 8 8 7 7 7 7 7 7 7 7 7 7 6 5 4 4 3 2 3 5 7 8 9 10 10 10 10 11 11 11 10 10 9 8 7 8 8 7 7 7 7 8 7 7 7 6 7 8 8 9 10 10 10 10 9 8
18 18 18 18 18 18 18 18 17 17 17 17 17 18 18 18 17 17 17 17 16 15 13 12 11 11 11 10 10 9 8 7 7 8 7 6 6 6 7 7 7 7 7 7 6 5 4 4 3 2 3 4 6 7 8 9 9 9 10 10 11 11 10 10 9 8 8 8 8 7 6 7 8 9 9 9 8 8 9 9 9 10 11 11 11 10 9 9
18 17 17 17 17 17 17 17 17 17 17 18 18 18 18 18 18 18 17 17 16 15 13 12 12 11 11 11 11 9 9 8 7 6 6 6 6 6 6 6 6 6 6 6 6 5 5 5 4 2 3 4 5 6 7 8 8 9 9 9 9 10 10 9 9 7 7 8 8 8 8 8 10 11 12 11 9 9 10 10 10 11 11 12 11 11 10 11
18 18 17 17 16 16 16 17 17 17 17 18 18 18 18 18 18 18 17 17 15 14 13 12 12 12 12 12 11 10 9 9 9 7 6 6 6 6 6 6 6 6 6 6 6 6 6 5 4 4 4 4 5 5 6 6 7 8 9 8 9 10 11 10 10 9 9 8 9 10 9 10 12 13 14 11 10 11 11 12 12 12 13 13 13 13 13 13
19 18 18 17 17 17 17 17 17 17 17 18 18 18 18 18 18 18 17 17 16 14 13 13 12 13 13 13 12 11 10 10 10 9 8 7 7 7 7 6 6 6 6 6 6 6 6 6 6 5 4 5 5 5 6 6 6 8 8 8 9 11 11 11 11 10 10 10 11 11 11 13 14 16 15 11 12 12 12 13 14 14 14 14 14 15 15 15
18 18 18 18 18 17 17 17 17 17 18 18 18 18 19 19 19 18 18 17 16 15 14 13 13 13 14 14 13 12 12 11 10 10 9 8 8 7 7 7 7 6 6 7 7 7 7 6 6 6 6 6 6 6 6 6 7 8 8 9 10 10 11 11 11 11 11 11 13 13 13 14 16 18 14 10 12 13 13 14 15 15 16 16 16 17 17 17
18 18 18 18 18 18 17 18 18 18 18 18 18 18 19 19 19 19 18 17 16 15 15 14 13 14 15 16 14 13 13 12 11 11 9 8 8 8 8 7 7 6 6 6 7 7 8 7 7 7 7 7 7 7 8 8 9 9 9 9 10 11 11 12 11 11 12 12 13 14 16 17 18 18 13 10 13 14 15 15 15 16 16 17 17 17 17 17
19 19 18 18 18 18 17 17 17 18 18 18 18 18 18 18 18 18 18 17 17 16 16 15 15 15 16 17 15 15 15 13 12 11 10 9 9 9 8 8 8 7 7 6 7 8 8 9 9 8 8 8 8 8 8 9 10 11 11 11 11 12 13 12 12 12 12 13 14 15 19 20 19 17 12 12 14 13 14 15 14 15 15 15 16 16 16 15
20 20 19 19 18 18 17 17 17 18 18 18 18 18 18 18 18 18 18 18 18 17 17 17 16 16 18 18 17 17 17 15 14 12 11 10 10 10 9 9 8 8 7 7 8 8 9 10 10 10 10 10 9 9 9 9 10 10 11 11 12 13 14 14 12 13 13 13 14 15 20 21 16 13 12 12 13 13 14 13 13 14 14 14 14 15 16 16
21 21 21 20 19 19 18 17 17 17 17 17 18 18 18 18 18 18 18 18 18 19 19 18 18 18 19 19 18 19 18 17 16 14 13 12 11 11 10 10 9 9 8 8 9 9 10 10 10 11 11 11 11 12 11 11 11 11 12 12 13 14 15 13 12 12 12 13 14 15 21 23 16 15 15 13 12 12 12 12 12 12 13 14 14 15 16 17
23 22 21 21 21 20 19 19 18 17 17 17 16 17 17 17 18 18 18 18 18 19 19 19 19 19 20 20 20 20 19 18 17 15 14 13 13 12 12 11 10 10 10 9 10 10 10 10 11 12 12 12 12 13 14 13 14 13 13 14 14 15 15 13 13 14 13 14 15 15 20 21 16 14 14 13 13 12 12 12 13 14 15 16 16 17 18 18
24 23 23 22 22 21 21 20 20 19 18 17 17 17 17 17 17 17 18 18 18 18 19 19 19 20 21 20 21 21 19 18 17 17 16 15 15 14 13 13 12 11 11 10 11 11 11 11 11 12 13 13 14 14 14 14 16 16 16 16 16 16 15 15 14 15 14 14 16 17 19 21 17 14 14 14 15 15 15 16 17 18 19 19 19 19 19 19
26 25 25 24 23 23 22 21 21 21 20 19 19 18 18 18 17 18 18 18 18 18 18 18 18 20 21 20 20 20 19 19 19 18 17 17 17 16 15 14 13 13 12 12 12 12 12 12 12 13 13 14 15 14 14 15 16 15 16 16 16 15 16 16 15 15 14 15 16 18 21 23 20 17 17 17 18 20 20 20 21 22 21 21 21 20 20 21
27 27 27 26 25 25 24 23 23 22 21 21 20 20 20 19 19 19 19 19 19 18 19 19 18 20 20 20 19 18 18 19 20 20 19 19 18 17 16 16 15 15 14 13 13 13 13 13 14 14 15 16 16 16 16 15 14 13 13 14 15 16 16 16 15 15 16 17 18 20 24 25 22 20 20 20 23 24 24 24 24 24 23 23 22 21 21 21
27 27 27 27 27 27 26 26 25 24 23 23 22 22 22 21 21 22 22 21 21 20 19 17 18 19 19 18 17 17 19 20 20 20 19 20 19 19 18 18 17 16 15 13 13 13 14 14 15 16 16 15 14 15 15 14 13 14 15 16 18 18 19 18 17 17 19 20 22 24 27 27 25 23 22 23 26 27 27 27 27 26 25 25 24 24 23 23
32 29 28 27 28 28 28 27 27 26 26 25 25 24 24 24 24 24 24 24 23 22 21 20 20 20 20 18 17 18 19 20 20 20 19 20 18 17 18 18 17 16 15 14 14 14 15 16 17 16 13 12 12 13 14 15 16 17 17 18 20 21 22 20 18 19 20 23 25 25 27 29 29 27 24 24 28 31 30 29 28 27 26 26 26 27 26 26
40 36 33 30 28 28 28 29 29 28 27 27 27 27 27 26 25 25 25 25 24 23 24 24 24 25 23 22 21 21 20 20 20 20 20 20 20 19 18 18 18 18 17 17 16 15 16 19 18 13 11 11 13 14 16 18 18 19 20 20 21 22 23 21 19 20 21 24 27 26 28 31 31 30 27 27 30 32 31 30 29 28 28 28 28 28 27 26
43 43 40 36 34 31 29 29 30 30 29 29 29 29 28 27 27 27 26 27 27 26 26 26 27 28 26 25 24 24 24 24 23 21 21 21 21 21 21 20 20 19 18 18 17 17 19 21 17 13 14 15 15 17 19 19 20 20 20 22 23 24 23 21 20 21 20 24 27 26 29 34 34 34 32 31 33 33 31 31 29 28 28 27 27 25 24 25
39 44 44 43 41 37 35 32 30 30 29 30 30 28 28 28 28 27 28 30 31 30 29 30 30 30 29 29 28 27 28 28 26 25 24 24 23 21 22 21 19 19 20 21 20 20 21 19 15 13 15 15 15 16 18 20 22 21 22 24 25 23 21 21 20 19 20 23 26 27 32 37 38 38 37 33 32 31 28 27 26 26 26 26 25 25 24 24
36 39 43 46 45 43 42 38 36 32 29 29 29 28 28 28 28 28 28 31 35 35 34 32 33 34 32 30 30 30 31 30 30 29 28 27 25 24 25 22 21 23 25 23 22 24 25 21 19 18 17 16 17 18 18 19 20 20 23 24 24 21 19 20 21 20 23 24 27 28 31 39 41 39 37 32 28 27 24 25 25 24 25 25 24 23 22 22
36 36 38 42 45 48 46 44 42 37 34 31 28 27 28 28 28 28 27 29 36 39 37 36 37 38 36 33 34 34 33 34 34 31 30 29 27 26 26 24 26 28 26 23 23 27 28 25 25 24 22 23 24 23 21 20 21 22 24 24 22 19 17 19 19 20 23 23 25 23 18 27 40 39 36 35 32 28 24 24 24 22 23 24 23 22 21 21
37 37 38 38 41 45 46 49 46 40 39 35 30 29 28 28 26 25 25 25 35 44 41 39 38 36 37 38 38 35 34 38 37 33 32 30 29 28 27 27 29 29 25 23 24 30 32 28 26 25 25 25 25 25 23 20 23 25 26 24 20 19 18 18 19 19 19 18 22 22 14 21 40 43 39 38 35 30 24 23 23 21 20 20 19 18 18 19
37 37 38 39 40 42 43 45 43 42 41 35 33 33 30 29 24 22 21 15 26 41 41 39 39 37 37 37 37 35 35 40 37 34 35 32 31 31 30 31 31 29 26 23 26 32 32 27 26 27 27 28 28 26 22 20 23 26 25 22 19 20 19 17 19 19 21 23 24 28 26 25 33 42 41 37 35 30 25 23 20 17 15 14 14 14 16 18
37 36 36 37 39 41 41 41 40 40 38 34 34 33 30 29 22 20 15 4 14 29 28 32 37 38 38 35 34 34 37 41 35 32 35 34 33 33 33 34 33 30 28 27 32 34 30 25 24 24 24 26 27 23 17 17 21 24 23 20 19 19 17 18 18 18 22 24 24 31 31 19 22 36 39 36 37 33 26 20 16 14 14 15 15 15 15 16
36 36 35 35 35 36 38 41 42 38 35 36 35 31 30 26 21 19 9 4 20 28 24 27 31 33 36 35 35 34 36 39 36 34 32 31 34 35 35 34 32 31 30 32 36 35 31 28 25 23 25 26 23 18 17 18 19 21 21 20 20 18 17 18 17 20 20 16 23 35 31 17 18 30 36 37 39 34 24 18 15 16 16 16 15 14 13 15
35 36 35 34 35 36 36 37 39 38 38 38 34 33 32 25 24 19 8 12 29 29 26 28 28 29 31 32 34 35 36 37 36 34 32 31 32 33 35 34 32 32 33 35 37 38 36 33 29 28 29 28 24 21 21 20 20 22 21 19 17 16 18 18 18 19 13 11 27 37 32 23 12 14 30 39 35 27 22 19 16 15 15 15 14 14 16 20
36 36 35 35 36 38 38 34 33 35 38 39 36 35 32 29 30 19 8 25 35 30 32 30 30 33 32 32 33 33 36 36 36 35 33 34 33 33 36 35 33 32 33 37 40 40 39 37 35 35 35 32 30 27 24 22 22 23 22 20 16 11 12 13 14 12 5 9 23 27 26 25 16 15 29 36 31 26 22 18 16 16 18 19 19 21 23 24
37 37 36 36 37 38 39 35 31 30 33 36 36 37 36 31 27 22 22 31 24 25 34 33 34 38 35 33 31 29 32 33 35 36 36 36 36 38 39 38 37 31 31 40 42 39 41 41 39 37 37 37 33 29 25 25 25 24 24 21 13 4 4 6 5 5 7 13 18 18 17 19 26 33 35 34 34 26 15 13 18 22 23 21 21 23 23 21
37 37 37 37 37 38 39 37 32 30 31 33 33 37 37 25 20 33 44 39 23 21 27 29 34 37 34 33 31 29 30 30 32 34 35 36 36 39 39 39 40 35 32 36 37 35 34 36 40 41 40 39 37 34 31 29 27 27 29 25 16 5 1 3 4 2 8 14 15 17 17 17 25 33 29 25 21 12 9 17 22 21 20 19 20 20 19 19
37 38 38 38 37 37 40 38 34 32 32 33 35 38 35 22 23 42 51 50 42 32 25 25 27 29 32 34 33 32 31 31 33 33 34 37 37 39 41 40 41 41 38 32 29 31 25 24 33 37 36 37 37 37 36 34 30 28 29 28 24 18 9 4 4 4 5 7 8 11 11 8 11 15 14 13 12 14 21 24 19 17 18 19 18 17 17 18
38 38 39 40 40 39 41 40 35 35 35 36 38 41 39 32 36 45 49 53 51 39 28 22 18 22 30 32 32 33 32 33 34 35 36 38 40 41 41 42 42 42 41 34 28 28 26 26 30 28 26 28 29 29 32 33 29 26 27 29 30 31 23 13 10 10 7 8 8 12 15 17 20 24 27 28 31 29 23 18 14 15 17 16 16 15 16 17
38 39 40 42 43 41 41 40 37 37 39 41 40 46 46 45 45 46 48 50 49 44 34 20 16 23 29 31 33 33 33 34 35 36 39 39 41 42 40 40 41 41 42 40 34 28 24 28 33 29 26 25 23 22 24 27 26 24 28 34 34 30 26 19 14 13 8 7 11 16 22 30 32 35 37 35 29 19 13 15 15 13 13 15 16 17 17 16
39 40 42 43 44 42 41 40 38 35 39 45 44 46 47 49 47 44 44 44 43 45 43 32 25 29 31 32 36 36 35 36 35 36 39 39 39 42 42 40 39 40 41 40 40 34 25 24 28 28 27 27 26 24 24 26 28 27 28 31 31 25 24 21 10 5 2 4 9 14 21 27 23 22 25 21 16 17 18 16 11 13 17 16 17 17 16 15
39 40 43 44 43 43 41 40 37 34 39 47 48 46 47 47 45 44 42 42 40 41 47 44 36 32 32 33 35 35 36 37 36 36 38 37 37 39 43 43 42 41 39 38 40 38 31 23 22 24 23 23 26 26 27 29 32 33 29 25 23 19 18 20 13 3 2 3 7 8 13 22 25 26 28 26 27 24 14 8 10 19 20 18 18 17 13 13
39 40 45 45 43 42 42 40 37 35 40 47 48 47 49 48 47 46 43 44 43 41 44 46 40 34 33 34 34 35 37 38 39 39 38 38 38 40 41 41 41 41 39 40 41 40 36 26 20 24 25 22 25 30 33 35 34 33 31 28 27 21 15 19 20 10 3 3 5 4 6 16 26 32 30 25 20 10 7 9 18 19 18 20 21 17 12 11
41 42 47 46 42 42 42 40 38 38 43 49 49 49 49 49 50 48 46 46 46 44 43 42 40 36 35 36 36 36 38 40 43 43 41 40 41 43 42 39 39 38 37 40 42 41 40 32 23 23 23 23 29 33 36 37 33 33 35 34 34 29 19 15 20 20 10 2 2 2 7 14 16 16 10 5 8 9 9 17 16 15 21 22 19 18 15 10
41 43 49 46 41 42 42 41 42 42 46 50 51 51 52 52 51 49 47 48 48 48 46 42 39 38 38 38 38 38 38 40 43 45 44 44 44 44 44 41 38 35 35 40 43 41 41 40 33 27 27 31 36 36 35 35 34 35 37 38 39 38 30 15 11 20 20 12 9 4 8 25 23 8 6 10 8 11 18 16 13 17 21 18 19 22 17 11
42 45 49 45 41 42 42 43 46 45 48 52 52 53 54 54 54 51 49 49 49 49 48 45 42 40 40 41 40 39 38 39 42 45 46 47 48 48 45 41 37 34 35 38 39 40 42 42 37 36 38 39 36 33 31 31 34 37 38 39 40 40 40 27 11 16 23 24 25 11 8 34 38 17 14 15 13 14 16 15 17 19 14 13 21 25 20 15
44 47 47 43 39 40 43 46 47 46 48 51 52 54 55 55 55 53 50 47 48 49 49 48 46 43 43 43 40 37 37 38 41 44 46 46 49 49 46 43 38 34 34 34 35 38 41 39 35 33 36 35 32 32 33 32 34 40 43 43 40 38 40 35 27 25 22 25 28 11 6 36 42 21 17 19 15 14 16 22 26 19 12 15 19 22 23 20
45 47 47 41 37 37 42 48 50 50 51 51 51 53 55 55 56 56 54 52 51 50 49 50 50 47 45 44 41 39 37 36 37 42 45 46 48 47 44 45 43 38 37 37 37 37 38 40 36 23 16 19 21 24 31 35 35 39 43 42 41 41 37 37 38 30 20 28 34 15 12 39 40 22 17 14 10 13 17 25 28 21 17 22 23 22 24 25
43 44 45 42 39 39 43 49 51 54 54 53 52 52 53 56 58 59 57 55 54 51 50 50 50 49 47 45 44 44 42 40 39 40 42 44 48 48 44 44 45 44 43 40 38 38 39 45 43 28 14 13 17 18 29 39 38 38 42 41 42 43 40 41 40 28 23 36 38 25 30 47 43 31 29 23 20 24 21 17 22 28 30 31 29 25 27 30
40 42 43 41 40 41 44 46 48 51 52 51 51 52 54 56 58 59 58 55 54 53 52 51 49 48 47 45 43 44 46 47 44 41 42 44 47 49 46 45 46 46 45 41 39 40 41 44 47 45 39 38 40 34 30 32 33 36 42 44 44 44 44 45 39 34 37 36 31 37 47 52 51 47 44 41 40 41 33 22 26 38 39 35 31 29 31 34
39 41 44 42 40 41 43 46 48 49 50 50 50 51 54 57 57 55 53 54 55 54 52 51 48 46 46 45 44 44 46 46 45 46 47 47 46 44 43 43 45 46 46 43 42 41 39 38 41 47 47 48 51 45 35 32 32 33 37 40 43 44 46 47 44 47 48 32 29 48 50 46 56 57 48 48 48 45 41 37 40 44 38 35 35 34 35 37
41 41 44 42 39 41 45 48 49 50 52 52 50 50 51 55 56 51 49 50 53 52 49 47 48 50 50 48 45 45 45 43 43 48 50 49 46 43 41 41 41 44 46 44 43 41 37 34 35 38 39 43 48 45 43 43 42 39 39 39 41 42 46 51 53 56 52 39 41 57 50 46 59 57 47 47 46 43 44 47 48 44 37 35 35 35 37 38
43 43 45 44 42 41 42 44 44 47 52 51 50 50 49 51 53 52 51 50 48 46 45 47 51 55 56 54 48 46 45 43 44 50 50 48 47 45 43 41 40 42 45 46 44 42 38 36 36 36 38 43 47 45 44 45 45 44 44 43 42 43 46 51 53 55 54 53 56 58 51 52 58 54 49 47 44 45 48 47 44 39 34 32 32 34 35 34
46 45 43 43 46 47 44 42 39 41 48 52 52 52 52 52 52 52 53 51 47 45 47 49 54 56 56 55 52 51 52 50 50 51 48 45 47 47 45 44 42 42 43 46 46 44 42 39 38 38 38 43 48 46 44 45 44 43 42 41 43 45 47 50 51 51 53 57 59 56 53 58 60 54 50 46 44 47 46 40 36 32 29 29 30 31 31 31
46 48 42 35 40 48 49 46 41 37 41 48 51 53 55 57 57 53 52 52 49 47 48 50 53 54 53 53 54 55 57 56 54 52 48 45 46 47 46 46 45 44 45 45 45 46 45 42 41 39 35 42 50 44 40 43 42 39 40 42 46 48 48 50 50 49 51 52 52 53 56 60 58 51 46 45 45 45 41 36 32 29 28 30 31 32 33 32
44 49 47 35 34 44 49 51 49 42 39 42 48 53 56 59 60 57 52 50 49 49 47 47 50 51 52 53 54 53 53 55 56 54 50 46 43 44 44 45 46 45 47 46 45 47 46 44 45 39 30 38 45 36 35 36 27 28 43 53 56 53 48 46 47 48 48 47 47 51 55 56 52 48 47 47 44 40 37 34 32 30 31 32 33 34 32 32
Wind_Direction
203 203 205 206 206 205 206 206 206 205 206 206 205 206 206 204 203 201 198 193 188 186 184 183 186 189 192 196 200 206 214 218 218 217 217 213 210 211 213 216 215 214 215 213 210 207 205 206 202 197 196 198 199 204 210 212 212 212 217 223 225 227 229 225 222 219 224 230 269 290 251 240 243 252 267 273 279 277 272 274 276 279 275 267 258 261 266 264
200 202 203 204 205 205 206 206 206 205 204 204 204 204 204 203 200 198 194 190 187 186 185 187 191 194 198 203 206 212 222 223 220 218 220 220 218 220 220 218 213 213 214 212 211 209 203 207 206 197 191 193 199 206 209 212 214 214 218 223 225 231 234 231 224 222 226 223 269 299 277 263 257 261 269 272 277 279 279 280 283 283 276 274 271 270 267 259
199 199 200 201 202 202 203 203 204 203 202 202 202 202 201 200 197 194 191 188 188 189 189 192 195 200 204 208 213 219 225 227 225 222 222 224 227 228 226 220 215 213 212 211 211 207 202 209 212 202 197 203 207 211 210 212 215 215 219 221 224 229 231 228 221 214 218 224 249 278 285 276 268 273 275 270 269 273 284 288 284 280 274 276 279 275 268 260
202 200 199 199 199 200 200 200 200 200 200 199 199 199 198 196 194 191 189 189 190 192 194 196 200 205 209 214 219 222 224 230 231 227 226 226 227 227 226 223 219 217 215 215 213 207 203 209 218 220 227 225 220 218 213 214 217 218 221 219 220 224 225 221 216 213 221 234 248 267 280 280 273 273 275 269 265 270 282 280 273 271 269 271 274 273 270 265
207 203 201 199 198 197 197 196 196 196 196 196 196 196 194 192 192 190 189 191 194 196 198 201 205 209 215 220 222 224 225 231 234 231 230 229 227 225 223 222 221 219 219 220 217 214 215 220 232 243 241 236 231 226 221 221 221 222 224 220 217 217 216 213 211 213 226 242 253 260 268 271 267 267 268 263 263 269 270 267 266 265 267 269 271 272 271 267
210 206 203 200 197 195 194 193 192 192 193 193 193 193 192 191 191 191 192 194 197 200 202 205 209 213 219 222 223 223 220 224 230 230 232 235 231 228 225 223 222 221 224 224 219 217 222 232 234 232 239 240 240 235 229 226 223 223 225 224 223 221 215 212 215 222 235 247 251 251 249 255 263 268 267 262 266 273 271 268 267 267 269 271 273 273 271 270
208 205 201 198 196 193 191 190 189 189 189 190 191 191 191 191 193 194 195 197 200 203 206 209 212 216 220 223 224 223 219 221 227 227 228 229 230 232 229 226 227 227 227 226 223 220 220 227 226 216 222 236 244 240 233 229 225 224 224 223 225 226 223 223 228 236 245 247 247 250 252 259 264 266 266 269 274 274 273 272 271 272 274 275 275 272 272 275
200 199 196 194 194 192 191 190 189 189 190 190 190 192 193 194 195 196 199 201 203 207 211 214 216 219 220 223 225 223 222 223 225 223 217 222 230 235 235 233 234 233 232 230 230 229 227 229 225 215 212 225 235 237 235 229 225 226 225 220 220 226 231 236 243 249 253 253 254 259 263 265 266 267 269 274 276 273 273 274 274 275 275 275 275 273 273 276
195 195 194 194 194 193 194 193 193 193 193 193 193 195 196 197 198 200 203 205 208 211 215 219 220 221 222 224 225 225 227 227 227 227 224 229 234 240 244 243 239 239 240 237 237 237 236 235 233 227 215 217 226 232 236 230 225 227 228 224 222 227 234 241 247 253 257 259 261 265 266 266 268 271 273 277 278 275 273 271 272 273 274 274 273 273 275 276
196 196 195 196 196 197 197 196 197 197 197 198 198 198 198 200 202 204 207 209 213 216 220 224 225 226 225 226 226 226 230 228 227 230 232 234 238 242 244 245 243 243 244 245 246 245 242 239 239 239 231 228 232 234 237 235 231 231 233 234 233 232 236 241 246 251 256 260 264 267 266 267 267 270 277 283 276 273 271 270 271 272 274 274 274 275 276 278
200 200 200 200 199 200 200 200 200 200 201 201 201 202 203 204 206 209 212 215 218 221 225 229 231 231 228 229 227 227 231 230 228 229 231 234 237 240 240 244 247 245 245 248 248 248 247 243 239 240 240 238 239 243 245 241 239 238 237 241 244 241 239 241 243 248 254 258 263 267 268 267 266 272 285 283 270 269 270 270 271 272 274 275 276 277 278 279
204 205 205 206 205 205 205 204 204 205 205 205 206 207 209 211 214 217 219 222 224 227 230 233 236 236 233 231 227 227 231 229 228 228 230 234 236 239 241 244 247 248 249 247 246 247 247 246 242 240 240 242 243 246 250 247 246 246 245 247 251 253 250 246 244 247 253 257 262 269 271 268 268 278 285 272 267 268 269 272 273 273 274 275 276 276 277 277
210 209 208 209 210 210 210 209 210 211 212 212 213 214 216 219 222 225 228 231 234 235 237 239 240 240 238 233 228 230 232 231 231 230 231 235 238 242 245 246 249 251 250 248 248 247 246 247 246 243 243 247 246 245 250 252 250 250 252 252 254 257 258 255 252 252 255 258 261 266 270 271 274 281 277 267 267 269 271 274 274 274 274 274 275 274 275 275
217 215 213 212 212 212 212 213 213 215 216 218 219 221 222 224 227 230 234 237 240 242 243 244 244 244 241 235 230 231 232 232 234 234 236 239 242 245 247 249 250 250 250 250 248 248 249 248 247 248 248 249 249 251 254 256 257 257 259 259 255 256 260 260 256 255 256 259 261 261 268 274 276 273 271 268 268 268 272 274 272 274 275 274 274 273 273 273
222 222 221 218 217 215 214 214 216 217 219 220 222 225 227 228 230 232 235 238 241 244 246 247 246 245 242 237 232 232 233 234 235 238 240 241 244 245 248 249 249 251 251 250 249 249 249 248 249 251 250 250 251 252 253 257 260 260 262 262 258 256 260 263 259 259 261 262 262 259 264 275 277 269 269 268 266 269 273 275 277 278 279 278 275 273 272 271
225 225 225 225 224 221 220 218 218 219 220 222 224 227 229 231 233 234 236 238 240 242 245 246 246 246 244 239 235 233 234 235 237 239 240 242 244 244 246 249 251 251 250 251 252 251 250 251 251 251 252 253 251 252 257 260 261 261 263 263 263 264 264 265 263 265 266 263 262 257 260 271 275 271 270 270 271 274 275 277 282 284 283 280 276 274 274 275
227 227 228 228 228 227 225 224 223 222 222 223 225 228 231 234 236 238 239 240 241 243 245 246 246 246 246 241 238 236 236 238 238 239 240 241 242 244 246 248 250 251 251 252 253 254 254 253 252 252 253 253 253 253 253 257 261 263 266 268 270 270 267 266 267 267 266 263 263 261 262 267 272 274 274 274 274 276 278 282 284 284 282 279 278 277 278 278
231 231 231 230 231 231 230 229 228 228 226 227 229 230 232 235 238 241 243 244 245 246 247 248 248 250 250 245 241 237 237 238 238 237 239 240 241 243 244 246 249 251 250 250 251 253 255 255 254 254 253 252 253 253 252 262 274 273 270 270 268 266 264 264 268 270 270 267 266 266 268 272 275 275 275 276 276 277 280 282 282 281 281 282 282 280 279 278
236 234 234 234 233 233 233 233 233 232 231 231 232 233 235 237 239 241 244 246 247 248 251 254 254 253 253 249 243 238 236 236 237 236 237 240 242 243 244 245 246 245 244 246 250 252 253 255 253 252 258 263 266 266 266 272 274 267 263 262 262 263 262 264 268 272 273 273 271 270 273 278 278 275 275 275 275 276 279 281 281 282 283 285 284 282 280 278
240 239 238 238 237 237 236 235 236 236 235 235 236 236 238 239 242 244 246 248 251 253 255 256 255 254 254 249 243 239 236 236 237 236 236 238 238 238 238 236 235 236 243 250 253 252 253 254 254 260 273 280 277 269 263 261 259 257 257 258 260 263 264 267 268 269 272 273 273 275 277 279 278 277 277 274 274 275 278 281 283 283 284 284 284 282 280 278
236 240 241 240 240 241 240 238 238 238 237 238 239 239 240 242 245 249 251 253 253 253 254 255 255 255 254 251 247 243 241 239 238 236 236 237 237 236 233 231 234 242 250 251 248 251 253 254 258 272 282 273 263 257 256 257 256 256 258 258 260 263 267 270 270 270 272 272 275 279 278 277 278 278 276 272 272 277 281 283 284 284 282 282 282 282 281 279
232 236 240 243 243 243 243 242 241 240 240 241 241 243 245 246 248 251 255 256 254 252 254 254 254 255 255 254 250 247 245 243 242 239 238 238 237 237 238 239 243 249 247 243 245 252 256 260 267 274 270 263 258 258 259 258 258 257 257 258 260 264 271 274 273 273 273 274 278 280 278 277 278 278 276 275 277 281 284 283 283 282 280 280 282 284 282 277
230 233 236 241 244 245 245 244 244 243 243 243 244 246 248 250 251 253 256 259 258 254 253 254 255 256 256 254 252 250 249 248 246 244 243 243 242 242 243 244 245 244 239 242 251 254 257 265 270 264 262 264 264 262 260 258 259 259 259 261 264 268 274 277 278 278 276 276 280 282 283 280 279 279 279 281 283 285 285 283 282 281 282 284 285 284 280 276
231 233 235 237 241 244 246 245 245 245 246 247 247 248 250 251 253 255 258 263 262 257 254 255 256 255 253 254 253 251 250 249 247 246 245 245 245 244 246 247 244 242 244 251 259 260 261 264 264 261 264 268 268 264 260 260 262 264 265 264 268 274 277 277 279 280 279 279 280 286 289 284 282 283 286 287 286 285 286 285 284 284 286 288 285 282 280 278
233 233 235 236 238 241 244 246 246 247 249 250 251 251 251 251 253 257 259 265 266 261 257 255 256 255 254 253 251 249 250 249 245 244 244 245 246 246 247 245 242 243 247 253 257 260 260 260 261 263 264 265 265 263 260 262 265 267 267 267 273 278 276 275 276 277 280 280 281 287 292 286 285 287 289 290 288 288 290 288 288 292 291 288 285 281 279 276
235 235 235 236 236 237 240 244 246 249 250 250 251 251 252 252 253 255 257 265 268 264 260 257 255 254 251 247 247 247 249 249 245 243 243 242 242 243 243 241 242 244 247 250 254 259 259 258 260 261 260 260 259 258 258 261 264 264 266 270 275 275 271 270 270 272 276 277 282 286 279 279 286 287 286 287 289 291 292 293 296 298 293 286 281 277 273 272
236 237 237 237 237 237 238 241 244 247 248 249 248 248 250 251 250 252 253 266 271 264 260 257 253 251 249 247 246 242 242 247 245 241 242 241 239 239 238 239 241 243 243 244 247 254 258 258 258 258 256 256 255 257 261 263 262 261 269 275 274 274 273 269 268 266 268 272 278 279 274 274 280 283 285 288 290 292 294 299 305 302 297 291 286 281 278 277
236 237 237 236 237 238 238 240 241 242 245 245 244 245 246 245 244 244 240 240 266 262 259 254 250 249 248 246 245 239 240 247 246 241 241 239 238 238 239 241 243 245 246 244 247 255 261 260 259 259 255 254 255 259 264 262 260 263 271 274 271 273 271 266 266 263 269 275 273 271 270 268 269 275 284 290 288 291 299 305 307 305 303 299 292 289 284 281
236 236 234 234 238 240 239 239 238 238 240 240 241 240 238 238 234 227 211 212 251 254 253 248 245 245 244 241 241 238 239 244 243 243 242 237 236 237 239 242 243 244 244 245 249 256 259 257 256 255 252 253 256 258 256 253 258 265 269 269 268 269 266 267 267 265 270 269 264 268 266 259 269 275 280 284 284 290 301 304 306 307 305 301 296 290 283 283
237 236 235 232 234 240 240 239 239 236 235 237 237 235 232 228 217 201 168 229 243 247 246 243 242 242 241 237 235 235 236 238 239 239 238 235 235 236 238 240 239 239 240 242 247 250 252 253 252 249 251 254 255 253 251 250 254 257 259 260 262 262 262 264 265 267 274 258 260 268 265 258 269 275 277 281 284 290 300 300 303 306 305 305 299 288 285 288
238 237 237 232 230 237 239 240 241 236 233 231 230 229 223 216 208 188 193 237 242 248 243 240 241 240 242 240 237 236 233 235 236 233 232 232 231 229 230 230 230 231 235 239 243 247 248 248 248 249 251 253 253 252 251 251 249 247 249 251 251 257 265 265 261 255 250 259 264 270 268 256 237 252 277 283 284 289 295 295 300 306 307 304 296 289 289 290
238 237 238 235 232 235 237 240 240 237 233 226 224 223 209 199 200 194 217 235 243 253 243 239 243 241 243 242 240 242 238 235 235 233 232 231 229 230 231 230 228 225 229 236 239 243 246 247 247 250 251 250 250 250 248 246 241 239 241 237 230 251 297 263 249 232 233 254 263 266 268 251 244 262 278 281 283 288 286 287 301 307 307 302 294 292 290 287
236 236 237 235 232 231 234 238 234 234 237 230 225 219 201 188 199 207 217 226 230 245 243 241 245 243 242 238 234 235 235 235 237 234 231 230 230 234 235 236 234 229 232 237 236 238 245 248 247 246 247 247 246 244 243 241 238 238 237 229 213 184 43 263 254 278 257 259 263 257 258 259 260 270 278 277 279 282 280 297 305 305 305 303 297 294 291 289
235 235 235 236 234 231 233 235 232 231 240 239 227 212 196 193 215 214 220 227 228 235 242 239 237 234 234 236 235 232 227 228 233 231 228 224 225 230 231 232 232 232 235 239 238 236 238 247 246 244 245 247 247 247 248 249 249 249 246 238 229 220 210 219 228 224 261 290 281 240 236 246 249 263 273 268 269 282 293 301 305 303 306 304 300 301 298 293
235 233 233 235 234 234 233 233 232 230 238 244 228 204 193 202 214 216 222 227 223 226 236 235 225 221 223 229 233 231 226 226 227 225 224 223 224 228 230 230 229 229 230 231 236 235 233 244 249 247 246 247 248 248 247 245 244 247 242 231 231 234 233 241 256 255 277 315 281 232 235 247 253 263 267 270 279 285 291 298 304 309 308 302 304 309 304 295
235 233 233 233 233 235 234 233 233 229 237 246 222 197 201 215 221 223 229 230 224 222 227 225 208 211 216 220 224 223 221 223 223 220 221 224 228 231 232 233 231 230 230 228 229 227 227 242 248 246 244 243 241 239 238 233 231 232 225 221 228 236 235 239 260 272 278 292 267 243 248 259 266 272 272 274 280 277 281 297 304 313 311 303 308 311 304 296
235 233 233 233 232 233 234 235 236 230 239 244 222 205 218 228 228 230 235 237 233 227 228 228 219 216 215 214 218 218 216 218 218 219 221 221 226 230 231 232 232 232 234 232 231 231 232 242 247 244 242 240 235 231 227 227 227 224 221 225 231 234 232 230 244 301 277 264 269 246 250 262 265 270 275 272 267 274 286 292 295 311 314 310 311 313 308 297
236 235 234 233 231 232 233 235 237 238 243 238 225 224 234 238 239 239 239 240 239 232 230 229 227 224 220 217 219 218 213 214 215 217 220 220 225 231 230 230 230 230 233 232 231 234 237 241 247 243 237 234 231 227 222 221 224 226 229 231 225 220 222 214 210 261 217 229 288 259 252 262 256 260 273 276 276 282 277 255 288 310 315 315 315 316 311 299
237 236 236 234 230 230 232 233 235 240 239 228 222 231 240 245 248 243 240 242 240 235 231 230 229 226 224 224 226 222 216 217 220 219 219 221 228 236 235 232 232 231 231 230 229 232 233 235 243 242 234 226 222 220 219 219 217 220 227 229 225 222 218 207 208 218 194 200 279 294 278 268 266 273 279 279 275 251 200 268 301 309 312 314 315 316 314 301
235 236 238 235 229 228 232 234 233 236 236 231 231 240 246 250 250 244 242 241 238 236 235 232 229 225 226 228 228 227 224 223 225 225 225 227 232 240 240 234 233 232 229 229 230 232 231 231 238 239 228 218 221 226 229 229 224 221 222 222 221 219 212 214 222 223 218 201 215 294 287 271 281 295 283 212 188 201 262 298 297 297 308 310 310 315 316 297
233 236 240 237 229 226 229 233 231 231 236 237 240 245 248 249 250 247 243 238 235 237 237 236 236 231 231 231 229 230 228 226 227 226 228 232 235 240 243 239 235 232 227 225 226 228 229 230 233 233 228 227 233 238 239 239 238 236 235 232 229 222 213 208 223 224 222 230 228 209 280 273 276 278 191 175 196 266 292 294 280 294 308 306 304 312 314 290
231 233 239 240 233 227 227 232 232 230 233 235 238 243 244 245 247 246 242 235 234 235 234 236 239 234 232 234 234 231 229 229 229 227 228 235 239 243 247 246 242 237 231 228 230 232 230 230 230 232 237 241 243 242 239 238 238 237 238 239 235 225 215 207 207 222 219 229 240 231 269 272 271 258 226 239 263 283 286 283 292 303 298 289 299 305 305 292
232 232 236 239 237 231 229 233 234 232 233 236 239 243 244 245 245 244 241 236 234 233 232 234 236 234 233 234 235 233 231 232 232 232 234 239 242 245 247 248 245 238 231 228 232 232 226 223 225 230 239 245 244 243 241 238 233 228 229 230 228 225 224 223 230 236 225 225 233 218 244 264 266 260 250 263 272 270 275 289 301 303 282 284 295 294 297 297
234 235 233 234 236 233 230 231 233 232 233 237 237 239 243 245 244 244 244 243 240 236 233 234 235 235 235 232 232 233 233 232 233 235 238 241 244 245 244 244 244 239 234 232 233 231 222 218 218 219 236 248 244 241 238 232 227 225 226 228 229 232 232 229 230 233 234 236 232 211 238 257 259 261 264 270 260 256 280 295 296 295 290 295 296 287 288 292
234 236 234 231 233 236 233 229 231 234 235 237 235 233 237 241 241 243 245 245 244 240 236 238 239 237 237 236 235 236 236 236 236 237 238 239 243 244 241 241 243 242 243 243 241 238 230 225 220 209 202 224 229 228 230 228 224 224 229 231 231 232 228 225 226 223 233 244 235 221 240 252 255 257 262 264 264 273 283 281 282 293 296 296 295 288 283 286
228 233 233 229 228 236 240 234 230 234 236 237 236 234 234 237 240 244 243 240 242 243 241 242 241 237 236 236 236 237 238 238 238 239 240 240 242 243 241 240 242 243 244 243 241 238 233 228 225 220 219 226 230 231 236 234 227 228 235 235 233 232 230 227 224 222 229 239 239 237 244 252 256 256 259 264 270 278 280 269 280 296 297 294 293 287 282 284
222 229 232 230 225 227 236 237 231 231 234 235 235 235 234 234 236 239 239 239 242 244 242 240 238 234 233 235 235 237 238 237 237 238 241 242 243 245 244 242 242 243 243 240 236 233 227 222 224 226 229 234 238 242 249 251 246 243 245 243 238 236 231 224 222 230 233 230 244 250 247 252 261 262 264 270 274 277 279 281 290 294 292 289 288 284 281 284
218 224 228 230 229 225 230 236 234 230 232 234 236 238 236 235 234 232 234 238 240 239 235 232 232 233 236 237 235 235 235 234 235 238 240 241 242 243 244 243 242 241 239 235 229 225 223 222 226 230 235 242 246 249 252 253 255 256 255 253 249 243 235 228 230 237 234 225 242 255 252 254 266 271 272 274 277 279 283 289 292 291 289 287 286 284 284 286
217 221 225 227 231 230 230 237 240 237 235 234 235 237 238 238 237 235 234 234 233 231 227 228 233 237 239 238 234 232 232 231 234 238 238 237 238 239 240 240 240 238 236 232 226 223 224 228 233 236 241 248 250 249 249 250 253 255 254 255 254 250 245 242 243 244 239 234 245 255 256 259 268 273 273 274 278 282 286 290 290 290 290 289 288 287 287 287
217 218 224 228 231 231 230 234 238 239 238 236 235 236 236 237 238 238 236 232 229 229 227 231 238 241 241 238 233 233 236 239 242 242 239 235 235 237 237 237 238 237 234 231 227 224 225 229 234 236 239 246 249 246 244 246 248 251 252 251 251 250 248 246 247 247 239 236 244 251 253 261 267 269 271 276 280 284 288 289 286 286 288 288 289 288 288 288
222 217 220 231 235 232 232 232 230 234 237 234 234 237 237 237 238 238 239 238 237 237 236 239 245 245 242 239 235 237 242 246 248 246 241 239 241 241 240 237 237 238 236 233 229 226 226 228 232 233 234 242 246 245 244 246 247 247 246 246 245 243 242 241 243 244 239 238 244 246 249 260 268 270 275 280 283 285 285 283 281 282 284 288 289 288 287 286
228 220 219 230 240 235 232 232 232 238 242 234 233 235 236 238 239 238 239 241 243 244 245 248 251 247 241 239 239 245 251 251 248 245 241 240 243 246 244 240 239 239 238 236 233 230 229 228 229 228 229 239 245 246 246 245 242 240 243 247 246 242 240 240 242 244 244 242 243 245 252 265 275 277 278 280 282 283 283 284 285 285 283 284 284 282 281 278
Height
3139 3141 3142 3143 3145 3146 3147 3148 3150 3151 3152 3154 3155 3156 3158 3159 3160 3161 3162 3163 3164 3165 3166 3167 3168 3168 3169 3170 3171 3171 3172 3172 3173 3174 3174 3174 3175 3175 3176 3176 3176 3177 3177 3178 3178 3178 3179 3179 3179 3179 3180 3180 3181 3181 3182 3182 3183 3183 3183 3183 3184 3184 3185 3185 3186 3186 3187 3187 3188 3188 3188 3189 3189 3189 3190 3189 3189 3189 3190 3190 3191 3191 3191 3191 3191 3191 3192 3192
3138 3140 3141 3142 3144 3145 3146 3148 3149 3150 3151 3153 3154 3155 3157 3158 3160 3161 3162 3163 3164 3165 3166 3167 3167 3168 3169 3170 3170 3171 3171 3172 3172 3173 3173 3174 3174 3175 3175 3176 3176 3176 3177 3177 3178 3178 3179 3179 3179 3179 3179 3180 3180 3181 3181 3182 3182 3182 3183 3183 3183 3184 3184 3185 3186 3186 3187 3187 3187 3188 3188 3188 3188 3189 3189 3189 3189 3189 3189 3190 3190 3190 3190 3190 3191 3191 3191 3191
3137 3139 3140 3141 3143 3144 3145 3147 3148 3149 3151 3152 3153 3155 3156 3158 3159 3160 3161 3162 3164 3165 3166 3166 3167 3168 3168 3169 3170 3170 3171 3171 3172 3172 3173 3173 3174 3174 3175 3175 3175 3176 3176 3177 3177 3178 3178 3178 3178 3179 3179 3179 3180 3180 3181 3181 3181 3182 3182 3183 3183 3184 3184 3185 3185 3186 3186 3187 3187 3187 3187 3187 3188 3188 3188 3188 3188 3188 3189 3189 3189 3190 3190 3190 3190 3190 3190 3191
3137 3138 3139 3140 3142 3143 3144 3146 3147 3148 3150 3151 3153 3154 3155 3157 3158 3159 3160 3162 3163 3164 3165 3166 3167 3167 3168 3169 3169 3170 3170 3171 3171 3172 3172 3173 3173 3174 3174 3174 3175 3175 3176 3176 3176 3177 3177 3178 3178 3178 3179 3179 3180 3180 3180 3180 3181 3181 3182 3182 3183 3183 3184 3184 3185 3186 3186 3186 3186 3187 3187 3187 3187 3187 3187 3188 3188 3188 3189 3189 3189 3189 3189 3189 3189 3189 3190 3190
3136 3137 3138 3139 3140 3142 3143 3145 3146 3147 3149 3150 3152 3153 3155 3156 3157 3158 3160 3161 3162 3164 3165 3165 3166 3167 3167 3168 3169 3169 3170 3170 3170 3171 3172 3172 3173 3173 3174 3174 3174 3175 3175 3175 3176 3176 3177 3177 3177 3178 3178 3179 3179 3179 3180 3180 3180 3181 3181 3182 3182 3183 3183 3184 3184 3185 3185 3185 3186 3186 3186 3186 3186 3186 3187 3187 3187 3188 3188 3188 3188 3188 3188 3188 3188 3188 3188 3189
3136 3137 3138 3139 3140 3141 3142 3144 3145 3146 3148 3149 3151 3152 3154 3155 3156 3158 3159 3160 3162 3163 3164 3165 3165 3166 3167 3167 3168 3169 3169 3170 3170 3170 3171 3172 3172 3173 3173 3173 3174 3174 3174 3175 3175 3176 3176 3176 3176 3177 3178 3178 3179 3179 3179 3180 3180 3181 3181 3181 3182 3182 3183 3183 3184 3184 3185 3185 3185 3185 3185 3185 3185 3185 3186 3186 3186 3187 3187 3187 3187 3187 3187 3187 3187 3187 3187 3187
3135 3136 3137 3139 3140 3141 3142 3143 3144 3145 3147 3148 3150 3151 3153 3154 3155 3157 3158 3159 3161 3162 3163 3164 3164 3165 3166 3166 3167 3168 3169 3169 3169 3170 3171 3171 3172 3172 3172 3173 3173 3173 3174 3174 3175 3175 3175 3175 3176 3177 3178 3178 3178 3179 3179 3179 3180 3180 3180 3181 3181 3182 3182 3182 3183 3184 3184 3184 3184 3184 3185 3185 3184 3184 3184 3185 3185 3186 3186 3186 3186 3186 3186 3186 3186 3186 3186 3186
3134 3135 3136 3138 3139 3140 3141 3143 3144 3145 3146 3147 3149 3150 3152 3153 3154 3156 3157 3158 3160 3161 3162 3163 3163 3164 3165 3165 3166 3167 3168 3168 3169 3169 3170 3171 3171 3172 3172 3172 3173 3173 3173 3174 3174 3174 3174 3175 3175 3176 3177 3178 3178 3178 3179 3179 3180 3180 3180 3180 3181 3181 3181 3182 3182 3183 3183 3183 3183 3183 3184 3184 3183 3183 3183 3184 3184 3184 3184 3185 3185 3185 3185 3185 3185 3185 3185 3185
3132 3134 3135 3136 3138 3139 3140 3142 3143 3144 3145 3146 3148 3149 3151 3152 3153 3155 3156 3157 3158 3160 3160 3161 3162 3163 3164 3164 3165 3166 3167 3167 3168 3169 3170 3170 3171 3171 3172 3172 3172 3173 3173 3173 3174 3174 3174 3174 3175 3176 3177 3177 3178 3178 3178 3179 3179 3179 3180 3180 3180 3181 3181 3181 3182 3182 3182 3183 3182 3182 3183 3182 3182 3182 3181 3182 3183 3183 3183 3183 3183 3183 3183 3183 3183 3183 3183 3183
3131 3133 3134 3135 3137 3138 3139 3141 3142 3143 3144 3145 3147 3148 3149 3151 3152 3153 3155 3156 3157 3158 3159 3160 3161 3162 3163 3163 3164 3165 3166 3167 3168 3168 3169 3169 3170 3171 3171 3171 3172 3172 3172 3173 3173 3173 3174 3174 3174 3175 3176 3177 3177 3177 3178 3178 3179 3179 3179 3179 3180 3180 3181 3181 3181 3181 3181 3182 3181 3181 3181 3181 3181 3180 3180 3181 3181 3181 3181 3181 3181 3182 3181 3181 3181 3181 3181 3181
3130 3132 3133 3134 3136 3137 3138 3140 3141 3142 3143 3144 3146 3147 3148 3149 3151 3152 3153 3155 3156 3157 3158 3159 3159 3160 3161 3162 3163 3164 3165 3166 3167 3167 3168 3169 3169 3170 3170 3171 3171 3171 3172 3172 3173 3173 3173 3174 3174 3175 3175 3176 3176 3177 3177 3177 3178 3178 3178 3179 3179 3179 3180 3180 3180 3180 3180 3180 3180 3180 3179 3179 3179 3178 3179 3180 3180 3180 3180 3180 3180 3180 3180 3180 3180 3180 3179 3179
3129 3131 3132 3134 3135 3136 3137 3139 3140 3141 3142 3143 3145 3146 3147 3148 3150 3151 3152 3153 3154 3155 3156 3157 3158 3159 3159 3160 3162 3163 3163 3165 3166 3166 3167 3168 3168 3169 3169 3170 3170 3170 3171 3172 3172 3173 3173 3173 3174 3174 3175 3175 3176 3176 3176 3176 3177 3177 3177 3178 3178 3178 3179 3179 3179 3179 3179 3179 3179 3179 3177 3176 3177 3177 3178 3178 3178 3178 3178 3178 3178 3178 3178 3178 3178 3178 3178 3178
3128 3129 3131 3132 3133 3135 3136 3137 3139 3140 3141 3142 3143 3145 3146 3147 3149 3150 3151 3152 3153 3153 3154 3155 3156 3157 3157 3159 3160 3161 3162 3163 3164 3165 3166 3167 3167 3168 3168 3169 3169 3170 3170 3171 3171 3172 3172 3173 3173 3174 3174 3174 3175 3175 3175 3175 3176 3176 3176 3177 3177 3177 3177 3177 3178 3178 3178 3178 3178 3178 3175 3173 3176 3176 3176 3176 3176 3176 3176 3176 3176 3176 3176 3176 3176 3176 3176 3176
3127 3128 3130 3131 3132 3133 3135 3136 3137 3138 3140 3141 3142 3144 3145 3146 3147 3148 3149 3150 3151 3152 3153 3153 3154 3155 3155 3157 3158 3159 3160 3162 3163 3164 3165 3166 3166 3167 3167 3168 3168 3169 3169 3170 3170 3171 3171 3172 3172 3172 3173 3173 3174 3174 3174 3175 3175 3175 3175 3176 3176 3175 3175 3176 3176 3176 3176 3176 3176 3177 3173 3171 3174 3175 3174 3174 3174 3174 3174 3174 3174 3174 3175 3174 3175 3174 3174 3174
3125 3127 3128 3130 3131 3132 3133 3135 3136 3137 3138 3140 3141 3142 3143 3144 3145 3146 3147 3148 3149 3150 3151 3152 3152 3153 3153 3155 3156 3157 3159 3160 3161 3163 3164 3164 3165 3166 3166 3167 3167 3168 3168 3169 3169 3170 3170 3170 3171 3171 3172 3172 3173 3173 3173 3173 3174 3174 3174 3174 3174 3174 3174 3174 3175 3174 3175 3174 3174 3175 3172 3170 3172 3173 3172 3173 3173 3173 3173 3173 3173 3173 3173 3172 3172 3172 3172 3172
3123 3125 3126 3128 3129 3131 3132 3133 3134 3135 3137 3138 3139 3140 3142 3143 3144 3145 3145 3146 3147 3148 3149 3150 3150 3151 3152 3153 3154 3155 3157 3159 3160 3161 3162 3163 3163 3164 3165 3165 3166 3167 3167 3167 3168 3168 3169 3169 3170 3170 3170 3171 3171 3171 3172 3172 3172 3172 3172 3172 3172 3173 3173 3173 3173 3172 3173 3172 3172 3172 3170 3169 3170 3171 3171 3171 3171 3171 3171 3171 3171 3170 3170 3170 3170 3170 3170 3170
3121 3122 3124 3126 3127 3129 3130 3131 3132 3134 3135 3136 3137 3138 3140 3141 3142 3143 3143 3144 3145 3146 3147 3147 3148 3149 3149 3151 3152 3154 3156 3157 3158 3159 3160 3161 3161 3162 3163 3164 3165 3165 3166 3166 3166 3167 3167 3168 3168 3168 3169 3169 3170 3170 3171 3170 3170 3170 3170 3170 3171 3171 3171 3171 3171 3171 3171 3170 3170 3169 3168 3167 3169 3170 3169 3169 3169 3168 3168 3168 3168 3168 3167 3167 3167 3167 3167 3167
3118 3120 3122 3123 3125 3126 3128 3129 3131 3132 3133 3134 3135 3136 3137 3138 3139 3140 3141 3142 3143 3144 3144 3145 3147 3147 3147 3149 3151 3153 3154 3155 3156 3157 3158 3158 3159 3160 3161 3162 3163 3163 3164 3164 3165 3165 3165 3166 3166 3167 3167 3167 3168 3168 3168 3168 3169 3169 3169 3169 3169 3169 3169 3169 3169 3169 3169 3168 3168 3167 3165 3165 3167 3168 3167 3167 3166 3165 3165 3166 3165 3164 3164 3164 3164 3164 3164 3164
3115 3117 3119 3121 3122 3124 3125 3127 3128 3129 3131 3132 3133 3134 3135 3136 3137 3137 3138 3139 3141 3142 3143 3144 3145 3145 3146 3148 3150 3151 3152 3152 3153 3154 3156 3156 3157 3159 3159 3160 3161 3161 3162 3162 3163 3163 3164 3164 3164 3165 3165 3166 3166 3166 3167 3167 3167 3167 3167 3167 3167 3167 3166 3167 3168 3167 3166 3165 3165 3164 3162 3162 3163 3164 3165 3164 3163 3162 3162 3162 3162 3162 3161 3161 3161 3161 3161 3161
3112 3114 3116 3118 3120 3121 3123 3125 3126 3127 3129 3129 3130 3132 3132 3133 3134 3135 3136 3137 3139 3140 3141 3142 3142 3143 3144 3146 3147 3148 3149 3150 3151 3152 3153 3154 3155 3156 3157 3158 3159 3159 3160 3161 3161 3162 3162 3162 3162 3163 3164 3164 3165 3165 3165 3164 3164 3164 3164 3164 3164 3164 3164 3165 3166 3165 3165 3163 3161 3161 3160 3158 3159 3160 3162 3162 3159 3158 3158 3159 3158 3159 3158 3158 3158 3157 3157 3157
3109 3111 3113 3115 3117 3118 3120 3122 3123 3124 3126 3127 3128 3129 3130 3131 3132 3133 3134 3135 3136 3138 3138 3139 3139 3140 3141 3143 3145 3146 3147 3148 3149 3150 3151 3152 3153 3154 3155 3156 3157 3157 3158 3159 3159 3159 3160 3159 3160 3162 3163 3163 3163 3162 3162 3162 3162 3162 3162 3162 3162 3162 3162 3163 3164 3163 3163 3160 3158 3159 3157 3154 3154 3155 3157 3158 3155 3155 3155 3156 3155 3155 3155 3154 3154 3154 3154 3153
3105 3107 3109 3111 3113 3115 3117 3118 3120 3121 3123 3124 3125 3126 3128 3129 3130 3131 3132 3132 3133 3134 3135 3135 3136 3137 3139 3140 3142 3143 3144 3145 3147 3148 3149 3150 3151 3152 3153 3154 3155 3156 3156 3156 3157 3158 3157 3157 3159 3161 3161 3160 3161 3160 3160 3160 3160 3160 3160 3160 3159 3160 3160 3161 3161 3161 3160 3158 3155 3156 3153 3150 3151 3151 3152 3153 3152 3152 3153 3152 3151 3151 3151 3150 3150 3150 3150 3149
3101 3103 3105 3107 3109 3111 3113 3115 3117 3119 3121 3122 3123 3125 3126 3127 3128 3129 3129 3128 3128 3130 3131 3132 3133 3134 3136 3137 3138 3140 3140 3142 3144 3145 3147 3147 3148 3150 3150 3152 3153 3153 3153 3154 3155 3155 3154 3156 3158 3159 3158 3158 3159 3159 3158 3158 3158 3158 3158 3158 3157 3158 3160 3159 3159 3159 3158 3156 3153 3153 3149 3145 3146 3146 3147 3150 3149 3148 3149 3148 3148 3147 3147 3147 3147 3146 3146 3146
3097 3099 3101 3103 3105 3107 3109 3111 3113 3116 3118 3119 3121 3122 3123 3124 3126 3126 3127 3125 3123 3124 3127 3128 3129 3129 3131 3134 3135 3136 3136 3138 3140 3141 3143 3144 3146 3148 3148 3150 3151 3150 3150 3152 3153 3153 3152 3154 3155 3156 3157 3157 3157 3156 3156 3156 3156 3156 3156 3155 3155 3157 3158 3157 3157 3157 3155 3154 3151 3150 3146 3139 3140 3141 3142 3145 3145 3145 3146 3145 3144 3144 3143 3143 3142 3142 3142 3142
3094 3096 3097 3099 3101 3103 3105 3107 3109 3113 3115 3117 3119 3120 3120 3122 3123 3124 3125 3122 3117 3118 3122 3124 3124 3124 3128 3130 3130 3131 3133 3133 3135 3138 3139 3141 3143 3144 3145 3147 3147 3146 3148 3151 3151 3149 3149 3152 3152 3154 3155 3155 3154 3154 3154 3155 3154 3154 3153 3153 3154 3155 3156 3155 3155 3154 3152 3150 3149 3150 3145 3134 3134 3137 3137 3139 3140 3141 3143 3141 3141 3141 3140 3139 3138 3138 3138 3138
3090 3092 3093 3095 3097 3099 3101 3102 3106 3109 3111 3114 3116 3117 3118 3119 3120 3121 3122 3121 3112 3110 3116 3119 3119 3119 3121 3124 3124 3129 3130 3126 3130 3134 3135 3138 3140 3141 3142 3143 3143 3144 3147 3149 3149 3145 3145 3148 3150 3151 3151 3151 3151 3151 3152 3153 3153 3151 3150 3152 3153 3153 3153 3153 3153 3152 3150 3148 3146 3149 3146 3133 3129 3132 3133 3134 3135 3136 3139 3138 3137 3137 3136 3135 3135 3134 3135 3134
3085 3088 3090 3092 3093 3095 3097 3099 3102 3105 3107 3111 3112 3113 3115 3116 3118 3119 3121 3121 3109 3103 3109 3113 3113 3114 3115 3118 3121 3125 3123 3119 3125 3130 3131 3134 3136 3137 3138 3138 3139 3141 3144 3147 3144 3140 3141 3145 3147 3147 3148 3148 3147 3148 3151 3152 3150 3148 3148 3151 3151 3150 3151 3151 3151 3150 3148 3146 3145 3145 3144 3135 3127 3126 3128 3130 3132 3132 3134 3135 3134 3134 3133 3132 3132 3132 3132 3132
3081 3084 3086 3087 3088 3091 3093 3095 3099 3101 3103 3106 3108 3110 3112 3113 3116 3116 3120 3120 3106 3098 3103 3106 3107 3109 3110 3114 3116 3119 3117 3116 3122 3125 3127 3131 3132 3133 3134 3134 3137 3139 3142 3143 3139 3136 3139 3142 3144 3144 3144 3144 3144 3147 3149 3149 3148 3146 3147 3148 3148 3149 3149 3148 3149 3148 3146 3145 3142 3140 3142 3136 3123 3121 3127 3127 3127 3129 3130 3132 3132 3131 3131 3130 3130 3130 3129 3129
3077 3080 3082 3084 3085 3086 3089 3091 3094 3097 3099 3101 3104 3106 3108 3110 3113 3114 3118 3115 3100 3095 3098 3100 3102 3103 3105 3108 3111 3113 3114 3114 3118 3121 3124 3127 3127 3129 3130 3132 3135 3137 3138 3138 3135 3135 3137 3138 3141 3141 3141 3141 3143 3146 3146 3146 3146 3145 3145 3145 3146 3147 3146 3147 3146 3145 3145 3143 3137 3135 3139 3135 3119 3116 3125 3125 3123 3126 3128 3129 3129 3129 3128 3128 3127 3127 3127 3127
3073 3076 3078 3080 3081 3081 3084 3086 3090 3093 3094 3097 3100 3101 3104 3107 3108 3111 3113 3106 3095 3092 3093 3095 3098 3099 3100 3104 3106 3108 3110 3111 3114 3118 3121 3123 3124 3126 3127 3129 3132 3133 3134 3134 3132 3132 3133 3135 3137 3137 3137 3138 3141 3142 3143 3144 3144 3143 3143 3143 3144 3145 3144 3145 3144 3144 3145 3137 3130 3131 3134 3135 3121 3112 3119 3122 3120 3125 3126 3126 3127 3126 3126 3126 3125 3125 3124 3124
3069 3072 3074 3075 3076 3077 3079 3083 3087 3088 3089 3092 3094 3096 3098 3100 3103 3104 3102 3097 3092 3089 3088 3091 3094 3095 3096 3099 3101 3104 3106 3108 3110 3113 3116 3118 3120 3121 3122 3125 3127 3129 3130 3129 3128 3128 3129 3130 3132 3132 3134 3136 3137 3138 3139 3141 3141 3141 3141 3141 3143 3143 3143 3143 3141 3143 3142 3130 3125 3129 3130 3131 3121 3109 3114 3118 3117 3122 3124 3123 3124 3124 3124 3123 3123 3122 3121 3121
3065 3067 3069 3070 3072 3073 3075 3079 3084 3084 3084 3087 3089 3089 3090 3092 3095 3094 3092 3095 3092 3083 3082 3087 3089 3090 3093 3095 3098 3101 3103 3104 3106 3109 3111 3114 3115 3115 3117 3118 3121 3124 3124 3122 3123 3124 3124 3125 3127 3129 3130 3131 3133 3135 3136 3137 3137 3138 3139 3140 3142 3143 3143 3141 3139 3139 3136 3126 3123 3127 3127 3123 3112 3106 3112 3114 3114 3118 3121 3121 3121 3121 3121 3120 3119 3118 3118 3117
3060 3063 3065 3066 3067 3069 3071 3075 3079 3080 3079 3082 3084 3083 3084 3084 3082 3082 3083 3087 3084 3077 3078 3083 3084 3087 3090 3092 3094 3097 3100 3101 3103 3105 3107 3110 3111 3112 3114 3115 3117 3118 3117 3117 3120 3122 3121 3122 3123 3124 3124 3126 3128 3129 3130 3131 3133 3134 3134 3136 3138 3142 3143 3141 3138 3136 3129 3123 3122 3125 3125 3116 3105 3105 3109 3110 3112 3115 3117 3119 3119 3118 3118 3117 3116 3115 3114 3114
3056 3058 3060 3062 3063 3066 3067 3070 3073 3075 3074 3075 3076 3076 3078 3077 3073 3074 3074 3075 3076 3075 3076 3077 3080 3084 3086 3088 3090 3093 3096 3097 3099 3101 3103 3105 3107 3107 3109 3110 3112 3113 3115 3117 3118 3118 3118 3116 3116 3117 3119 3121 3122 3124 3126 3127 3130 3130 3130 3133 3132 3133 3136 3134 3132 3130 3124 3121 3121 3122 3120 3109 3103 3104 3105 3107 3110 3112 3114 3116 3116 3116 3115 3114 3113 3113 3112 3111
3051 3053 3055 3057 3059 3061 3063 3065 3068 3070 3069 3068 3068 3066 3067 3067 3066 3067 3066 3067 3072 3073 3073 3074 3078 3081 3082 3084 3086 3089 3092 3093 3094 3097 3097 3098 3099 3099 3101 3104 3106 3109 3111 3113 3112 3113 3113 3110 3110 3114 3115 3117 3119 3120 3123 3124 3127 3127 3128 3129 3127 3126 3129 3129 3128 3125 3124 3123 3118 3115 3110 3101 3100 3102 3103 3105 3107 3109 3112 3112 3113 3113 3112 3112 3111 3111 3110 3109
3046 3048 3050 3052 3054 3057 3059 3061 3064 3066 3064 3062 3060 3057 3056 3057 3058 3059 3061 3064 3069 3071 3071 3073 3075 3078 3079 3081 3082 3084 3087 3088 3090 3092 3093 3094 3094 3095 3097 3099 3101 3103 3104 3106 3106 3107 3108 3106 3107 3110 3112 3114 3115 3117 3119 3120 3122 3122 3121 3121 3121 3123 3127 3128 3126 3123 3125 3123 3111 3105 3101 3097 3099 3098 3098 3103 3104 3106 3109 3109 3110 3111 3109 3110 3109 3108 3108 3106
3041 3043 3045 3046 3050 3053 3055 3058 3060 3061 3059 3056 3052 3050 3051 3052 3054 3058 3060 3062 3066 3069 3071 3071 3071 3073 3074 3075 3077 3079 3082 3084 3086 3087 3088 3090 3089 3089 3092 3094 3096 3098 3099 3101 3102 3103 3104 3104 3104 3106 3107 3109 3111 3113 3114 3115 3116 3116 3115 3116 3120 3124 3125 3126 3126 3123 3126 3122 3107 3098 3096 3096 3098 3094 3093 3099 3101 3103 3105 3106 3107 3107 3107 3107 3107 3106 3105 3104
3036 3038 3039 3041 3045 3049 3052 3054 3055 3056 3054 3049 3045 3047 3049 3050 3052 3056 3058 3060 3064 3067 3067 3066 3067 3069 3070 3071 3073 3076 3079 3080 3082 3083 3084 3085 3083 3083 3086 3088 3091 3093 3096 3099 3100 3101 3102 3102 3101 3103 3104 3105 3108 3109 3109 3110 3111 3111 3112 3115 3118 3120 3119 3121 3123 3120 3121 3120 3106 3096 3093 3092 3091 3090 3091 3095 3097 3099 3101 3103 3104 3104 3104 3104 3103 3103 3103 3101
3032 3033 3032 3036 3042 3045 3047 3050 3051 3052 3048 3042 3040 3042 3043 3044 3047 3052 3055 3057 3059 3061 3061 3061 3064 3066 3066 3068 3070 3073 3075 3075 3077 3079 3079 3080 3078 3077 3081 3084 3086 3090 3093 3096 3096 3097 3099 3100 3098 3098 3099 3102 3103 3103 3102 3102 3106 3109 3111 3113 3113 3114 3113 3114 3116 3114 3114 3115 3107 3098 3091 3084 3083 3085 3088 3091 3093 3095 3097 3099 3100 3101 3101 3101 3101 3101 3100 3099
3027 3027 3025 3031 3038 3040 3043 3046 3046 3045 3041 3037 3037 3038 3038 3040 3043 3047 3052 3053 3054 3056 3056 3058 3061 3062 3062 3064 3066 3069 3071 3071 3072 3073 3073 3074 3074 3073 3076 3079 3083 3086 3090 3092 3093 3095 3097 3096 3095 3094 3096 3097 3096 3095 3095 3096 3101 3103 3105 3106 3107 3109 3111 3111 3111 3110 3110 3111 3108 3103 3090 3078 3078 3082 3084 3087 3089 3091 3094 3096 3097 3098 3099 3099 3098 3098 3098 3097
3022 3021 3019 3025 3033 3036 3039 3039 3037 3037 3036 3034 3034 3035 3036 3037 3038 3042 3047 3049 3050 3051 3053 3055 3058 3059 3059 3060 3062 3064 3067 3068 3068 3069 3069 3070 3070 3069 3071 3074 3079 3083 3086 3088 3088 3090 3091 3090 3091 3091 3090 3089 3088 3090 3093 3095 3096 3097 3097 3097 3097 3101 3104 3106 3107 3106 3107 3107 3105 3104 3091 3074 3075 3082 3082 3085 3087 3088 3092 3093 3094 3095 3096 3096 3096 3096 3095 3095
3015 3014 3015 3021 3027 3031 3033 3031 3030 3031 3029 3028 3030 3031 3031 3032 3034 3036 3040 3043 3045 3047 3049 3051 3052 3054 3056 3056 3058 3061 3063 3064 3064 3065 3065 3065 3065 3066 3068 3072 3076 3079 3081 3082 3083 3085 3086 3086 3087 3086 3084 3085 3087 3090 3091 3092 3093 3093 3093 3091 3092 3095 3096 3098 3101 3100 3103 3102 3099 3103 3093 3071 3071 3080 3080 3081 3084 3086 3089 3090 3091 3093 3093 3094 3094 3093 3093 3093
3008 3009 3013 3017 3020 3026 3027 3024 3025 3025 3023 3024 3028 3027 3027 3029 3031 3031 3034 3038 3041 3042 3044 3045 3047 3049 3051 3053 3055 3057 3059 3060 3060 3061 3061 3061 3061 3064 3068 3070 3072 3074 3076 3076 3078 3081 3081 3081 3082 3082 3082 3083 3085 3087 3087 3088 3088 3087 3086 3087 3089 3092 3092 3095 3097 3096 3097 3096 3093 3100 3092 3069 3067 3075 3076 3078 3082 3083 3086 3086 3087 3090 3090 3091 3091 3090 3090 3090
3002 3005 3008 3011 3014 3017 3017 3016 3017 3018 3018 3021 3023 3022 3023 3025 3026 3026 3028 3031 3034 3037 3038 3039 3041 3044 3047 3050 3052 3053 3055 3056 3056 3057 3058 3058 3057 3060 3065 3067 3067 3068 3070 3071 3073 3075 3075 3074 3077 3080 3082 3082 3082 3082 3080 3079 3080 3079 3081 3083 3085 3089 3092 3093 3093 3093 3093 3088 3086 3091 3083 3065 3066 3073 3072 3075 3078 3079 3081 3083 3084 3086 3087 3088 3089 3088 3087 3086
2998 2999 3001 3006 3009 3008 3007 3010 3013 3013 3014 3017 3017 3018 3020 3019 3018 3021 3024 3025 3028 3033 3035 3035 3037 3040 3043 3047 3048 3049 3050 3051 3052 3053 3053 3054 3053 3055 3060 3063 3063 3064 3065 3067 3069 3070 3067 3066 3068 3072 3074 3073 3070 3067 3065 3067 3073 3075 3077 3079 3081 3084 3087 3086 3088 3091 3086 3079 3079 3081 3072 3062 3066 3071 3070 3072 3075 3076 3078 3079 3080 3082 3084 3084 3085 3085 3084 3083
2994 2993 2994 3000 3004 3002 3001 3005 3009 3008 3009 3012 3012 3013 3015 3013 3014 3017 3019 3021 3024 3028 3031 3032 3034 3036 3039 3042 3044 3044 3044 3045 3047 3048 3048 3048 3048 3049 3054 3058 3060 3061 3063 3064 3065 3065 3061 3059 3060 3061 3060 3058 3056 3056 3059 3063 3069 3071 3071 3073 3076 3078 3080 3082 3085 3082 3076 3074 3073 3070 3066 3063 3063 3066 3068 3070 3072 3073 3075 3076 3077 3078 3079 3080 3081 3081 3080 3079
2988 2987 2989 2993 2997 2997 2996 2998 3000 3002 3004 3006 3005 3006 3008 3009 3011 3013 3014 3016 3019 3023 3026 3028 3029 3031 3033 3035 3037 3037 3038 3040 3042 3043 3042 3042 3044 3047 3050 3053 3055 3057 3058 3059 3059 3059 3056 3053 3055 3055 3054 3053 3054 3057 3059 3061 3064 3066 3067 3070 3072 3073 3076 3077 3075 3070 3070 3073 3067 3060 3065 3064 3056 3059 3068 3069 3069 3071 3071 3072 3073 3073 3074 3075 3075 3075 3075 3075
2981 2981 2984 2988 2989 2989 2989 2990 2994 2996 2998 2999 2999 3001 3003 3004 3006 3008 3009 3012 3015 3017 3020 3022 3023 3024 3025 3028 3030 3031 3033 3036 3037 3035 3035 3037 3040 3043 3044 3047 3050 3052 3053 3053 3054 3053 3051 3050 3052 3052 3052 3052 3054 3056 3057 3058 3059 3062 3064 3066 3067 3069 3070 3068 3064 3062 3066 3068 3060 3055 3063 3061 3051 3055 3065 3066 3067 3068 3067 3068 3068 3068 3069 3069 3069 3069 3070 3070
2976 2975 2978 2982 2981 2983 2985 2986 2990 2991 2992 2995 2995 2996 2998 2999 3000 3003 3005 3008 3008 3010 3013 3014 3015 3017 3019 3022 3025 3026 3028 3029 3028 3027 3029 3033 3036 3038 3039 3041 3043 3046 3047 3047 3048 3048 3047 3047 3049 3050 3050 3049 3050 3052 3054 3055 3055 3056 3057 3060 3062 3063 3062 3059 3057 3059 3062 3062 3056 3056 3060 3055 3048 3052 3059 3062 3064 3064 3063 3064 3063 3062 3063 3064 3064 3064 3064 3065
2970 2971 2974 2976 2976 2977 2980 2982 2984 2984 2986 2989 2989 2989 2992 2993 2994 2998 3000 3001 3001 3003 3007 3007 3008 3012 3015 3018 3020 3020 3020 3022 3021 3022 3026 3030 3031 3032 3033 3034 3037 3040 3041 3041 3042 3043 3043 3043 3045 3047 3047 3045 3045 3047 3049 3050 3051 3050 3051 3054 3056 3054 3053 3052 3053 3056 3058 3056 3053 3056 3056 3047 3042 3049 3056 3058 3060 3060 3059 3059 3059 3058 3058 3058 3058 3058 3058 3059
2965 2968 2970 2971 2970 2972 2974 2976 2978 2978 2978 2980 2981 2983 2986 2986 2988 2993 2994 2995 2996 2999 3001 3003 3005 3010 3012 3013 3015 3014 3015 3017 3018 3021 3024 3026 3027 3027 3028 3029 3032 3034 3035 3036 3037 3037 3038 3039 3040 3042 3042 3039 3039 3042 3044 3046 3047 3046 3045 3046 3045 3043 3044 3046 3048 3050 3051 3051 3052 3054 3050 3039 3037 3048 3053 3053 3055 3056 3054 3054 3054 3054 3054 3054 3053 3053 3053 3053
2961 2964 2966 2966 2964 2965 2968 2970 2971 2971 2971 2972 2975 2977 2978 2978 2984 2989 2989 2989 2992 2995 2998 3001 3003 3005 3006 3006 3008 3008 3010 3014 3016 3019 3021 3023 3024 3025 3025 3026 3027 3028 3030 3032 3032 3032 3034 3034 3035 3037 3038 3036 3035 3038 3040 3043 3042 3039 3035 3033 3033 3036 3039 3042 3043 3044 3045 3047 3048 3047 3041 3036 3039 3046 3047 3047 3049 3050 3048 3049 3049 3049 3049 3048 3047 3047 3048 3048